Location: G�migny
(47.9646°N, 1.6950°E)
Time: 10:14:51
(UTC+00:00)

Cosmos 2082 Rocket - Pass Details

Date: 23 October 2019
Orbit: 832 x 855 km, 71.0° (Epoch: 14 November)

Event Time Altitude Azimuth Distance (km) Brightness Sun altitude
Rises 17:27:04 0° 334° (NNW) 3,434 5.6 -6.8°
Reaches altitude 10° 17:29:36 10° 338° (NNW) 2,493 4.8 -7.2°
Maximum altitude 17:35:14 57° 58° (ENE) 995 2.3 -8.1°
Drops below altitude 10° 17:40:49 10° 137° (SE) 2,465 4.3 -9.0°
Sets 17:43:17 0° 141° (SE) 3,393 5.0 -9.5°
